CZ-6A DEB, 54342

Orbit data source: Space-Track

CZ-6A DEB, 54342 is space debris in SSO originally from a launch on Fri, 11 Nov 2022 UTC launched from the Taiyaun Space Center, China (TSC). Debris objects in space refer to the collection of defunct objects orbiting the Earth. Examples of debris include non-operational satellites, rocket bodies, and fragments generated from explosions, collisions, or faulty payload assembly.

Loading next visibility...
Identifier
54342, 2022-151CM
Orbit
SSO
Country
Flag of CNCN / PRC
Related business
Manufacturer
SAST
Mission
Spacecraft
Bus & Motor
Unknown
Mass
Unknown
Launch date (UTC)
2022-11-11 (4 years ago)
Launch vehicle
Unknown
Launch site
Taiyaun Space Center, China (TSC)
Object type
Payload
Rocket body
Debris
Shape & HBR
Unknown shape, 0.2 m
Radar Cross Section
Medium (>0.1 m² and <1 m²)

Expand to show TLE details & history
Last TLE update: 4 hours ago

TLE from 4 hours ago
0 CZ-6A DEB
1 54342U 22151CM  26193.21003131  .00000162  00000-0  11777-3 0  9996
2 54342  98.8413 188.9004 0050453 283.1044  76.4498 14.08965102187811
Epoch: 2026-07-12T05:02Z
TLE epoch observation values (Epoch: 2026-07-12T05:02:26.705Z)
Latitude
-0.00001°
Longitude
-176.82304°
Altitude
857.424 km
Speed
7.428 km/s
True Right ascension
12h 35m 36s
True Declination
0° 00' 00"
Sunlit
Object was in daylight at epoch
Visualization orbit readout
Latitude
Unknown
Longitude
Unknown
Altitude
Unknown
Speed
Unknown
Apparent Right ascension
Unknown
Apparent Declination
Unknown
Sunlit
N/A
Visualization observer readout
Local Sidereal Time
21:11:30
Azimuth
Unknown
Elevation
Unknown
Doppler factor
Unknown
Orbital elements
Apogee altitude
896.614 km
Perigee altitude
823.576 km
Semi-major axis
7,238.232 km
Eccentricity
0.00505
Inclination
98.8413°
RAAN
188.9004°
Arg. of periapsis
283.1044°
True anomaly
77.01268°
Mean anomaly
76.4498°
Eccentric anomaly
76.73116°
Mean motion
3.52447 °/min
Orbital period
102.14 mins
BSTAR
0.00011777
Loading maneuver chart data...
Computing Atmospheric mass density...
Loading historical data...
Loading historical data...
Loading historical data...
Loading historical data...
Loading historical data...
Loading historical data...
Loading historical data...

Documentation

Showing up to 5 results
|